Location: Austin
(30.3000°N, 97.7500°W)
Time: 10:59:17
(UTC-05:00)

Cosmos 1844 - Pass Details

Date: 05 September 2024
Orbit: 824 x 865 km, 70.9° (Epoch: 10 September)

Event Time Altitude Azimuth Distance (km) Brightness Sun altitude
Rises 20:55:57 0° 343° (NNW) 3,361 7.3 -15.1°
Reaches altitude 10° 20:58:24 10° 345° (NNW) 2,424 6.5 -15.6°
Maximum altitude 21:03:56 71° 69° (ENE) 868 3.6 -16.8°
Enters shadow 21:07:57 19° 151° (SSE) 1,861 5.1 -17.6°
